User: anonymous   Login
Location: Unspecified
(0.0000°N, 0.0000°E)
Time: 14:41:22
(UTC+00:00)
Language:

UNISAT 6 - Orbit

View from above orbital plane
View from above orbital plane
View from above satellite
View from above satellite

Ground track
Ground track

The orbit data is extracted from the following two-line orbital elements,

1 40012U 14033C   21334.02751366  .00000439  00000-0  71494-4 0  9996
2 40012  97.6632 167.6718 0059327  84.7846 276.0130 14.74450647400590
Epoch (UTC): 30 November 2021 00:39:37
Eccentricity: 0.0059327
inclination: 97.6632°
perigee height: 605 km
apogee height: 688 km
right ascension of ascending node: 167.6718°
argument of perigee: 84.7846°
revolutions per day: 14.74450647
mean anomaly at epoch: 276.0130°
orbit number at epoch: 40059

The dashed part of the orbit path shows where the satellite is in the earth's shadow,  

DLR